Regional Weather Roundup
Issued by NWS

Home | Current Version | Previous Version | Text Only | Print | Product List | Glossary Off
Versions: 1 2 3 4 5 6 7 8 9 10 11 12 13 14 15 16 17 18 19 20 21 22 23 24 25 26 27 28 29 30 31 32 33 34 35 36 37 38 39 40 41 42 43 44 45 46 47 48 49 50

000
ASUS43 KOAX 282302
RWRNE
WEATHER ROUNDUP FOR NEBRASKA
NATIONAL WEATHER SERVICE OMAHA NE
600 PM CDT THU MAY 28 2015

NOTES: SATELLITE DATA IS BEING USED TO AUGMENT CLOUD COVER ABOVE
       12000 FEET.
       "FAIR" INDICATES FEW OR NO CLOUDS BELOW 12,000 FEET WITH NO
       SIGNIFICANT WEATHER AND/OR OBSTRUCTIONS TO VISIBILITY.

  * THESE STATIONS DO NOT REPORT WEATHER SUCH AS RAIN...SNOW OR FOG.

NEZ001>004-019>022-054>056-290000-
NEBRASKA PANHANDLE

CITY           SKY/WX    TMP DP  RH WIND       PRES   REMARKS
SCOTTSBLUFF    CLOUDY    75  47  36 NW8       29.90F
ALLIANCE       CLOUDY    68  52  56 W7        29.91F
CHADRON        CLOUDY    72  51  47 VRB3      29.88F
SIDNEY         CLOUDY    55  51  86 VRB3      29.96F
$$

NEZ057>060-069>072-079>082-290000-
SOUTHWEST NEBRASKA

CITY           SKY/WX    TMP DP  RH WIND       PRES   REMARKS
NORTH PLATTE   PTSUNNY   74  58  57 S16       29.86F
IMPERIAL       CLOUDY    71  60  68 S15       29.89S
MCCOOK         CLOUDY    75  59  57 S15G22    29.87F
$$

NEZ005>010-023>029-035>040-094-290000-
NORTH CENTRAL NEBRASKA

CITY           SKY/WX    TMP DP  RH WIND       PRES   REMARKS
VALENTINE      PTSUNNY   68  54  60 SW9       29.86R
AINSWORTH      PTSUNNY   73  59  61 S14       29.88R
BROKEN BOW     CLOUDY    75  62  64 S12       29.88F
ORD            CLOUDY    74  59  59 S13       29.87F
$$

NEZ041-046>049-061>064-073>077-083>087-290000-
SOUTH CENTRAL NEBRASKA

CITY           SKY/WX    TMP DP  RH WIND       PRES   REMARKS
GRAND ISLAND   PTSUNNY   77  58  51 S10       29.90S
AURORA         PTSUNNY   78  58  48 S14       29.90R
HASTINGS       PTSUNNY   76  59  55 S13       29.89F
KEARNEY *      PTSUNNY   77  57  50 S16       29.88F
$$

NEZ011>018-030>034-042>045-290000-
NORTHEAST NEBRASKA

CITY           SKY/WX    TMP DP  RH WIND       PRES   REMARKS
NORFOLK        PTSUNNY   74  64  71 SE15      29.88F
ALBION         CLOUDY    79  57  47 S15       29.87F
BLAIR          CLOUDY    71  64  78 SE13G18   29.92F
COLUMBUS *     MOSUNNY   77  63  61 SE13      29.90S
FREMONT        CLOUDY    73  65  74 SE12      29.91F
TEKAMAH        CLOUDY    71  66  84 SE14      29.92F
$$

NEZ050>053-065>068-078-088>093-290000-
SOUTHEAST NEBRASKA

CITY           SKY/WX    TMP DP  RH WIND       PRES   REMARKS
LINCOLN        PTSUNNY   74  65  73 S16       29.90F
OMAHA EPPLEY   CLOUDY    72  64  76 S10       29.93F
BEATRICE       PTSUNNY   74  65  75 S12G18    29.91F
FALLS CITY     CLOUDY    74  65  73 S12       29.93F
NEBRASKA CITY  CLOUDY    72  62  71 S14       29.94F
$$

NEZ044-045-051>053-067-290000-
OMAHA AREA

CITY           SKY/WX    TMP DP  RH WIND       PRES   REMARKS
OMAHA EPPLEY   CLOUDY    72  64  76 S10       29.93F
BLAIR          CLOUDY    71  64  78 SE13G18   29.92F
FREMONT        CLOUDY    73  65  74 SE12      29.91F
WAHOO          MOCLDY    73  65  74 SE16      29.91F
$$


USA.gov is the U.S. government's official web portal to all federal, state and local government web resources and services.